This is the latest recevied weather packets stored in our database for station/object JA7ZQY-10. If no packets are shown the sender has not sent any weather packets the latest 10 day(s).
| Time | Temp. | Humidity | Pressure | Rain* | Wind** | Luminosity | Snow |
|---|---|---|---|---|---|---|---|
| 1777664090 | 11.67° C | 91% | 990.9 hPa | 0 mm | - | - | - |
| 1777663489 | 11.67° C | 91% | 990.7 hPa | 0 mm | - | - | - |
| 1777662891 | 11.67° C | 91% | 990.7 hPa | 0 mm | - | - | - |
| 1777662291 | 11.67° C | 93% | 990.4 hPa | 0.25 mm | - | - | - |
| 1777661690 | 11.67° C | 94% | 990.2 hPa | 0.25 mm | - | - | - |
| 1777661091 | 11.67° C | 93% | 989.9 hPa | 0.25 mm | - | - | - |
| 1777660491 | 11.67° C | 93% | 989.8 hPa | 0.25 mm | - | - | - |
| 1777659891 | 12.22° C | 94% | 990.2 hPa | 0.25 mm | - | - | - |
| 1777659290 | 12.22° C | 94% | 990 hPa | 0.25 mm | - | - | - |
| 1777658691 | 12.22° C | 91% | 990 hPa | 0 mm | - | - | - |
| 1777658090 | 12.78° C | 92% | 990.1 hPa | 0 mm | - | - | - |
| 1777657490 | 12.78° C | 93% | 990 hPa | 0 mm | - | - | - |
| 1777656890 | 13.33° C | 95% | 989.8 hPa | 0 mm | - | - | - |
| 1777656291 | 13.33° C | 98% | 989.6 hPa | 0 mm | - | - | - |
| 1777655691 | 13.33° C | 99% | 989.5 hPa | 0 mm | - | - | - |
| 1777655091 | 13.33° C | 99% | 989.4 hPa | 0.25 mm | - | - | - |
| 1777654491 | 13.33° C | 99% | 989.4 hPa | 0.25 mm | - | - | - |
| 1777653891 | 12.78° C | 99% | 989.4 hPa | 0.25 mm | - | - | - |
| 1777653291 | 12.22° C | 99% | 989.7 hPa | 0.51 mm | - | - | - |
| 1777652691 | 12.22° C | 99% | 989.8 hPa | 0.51 mm | - | - | - |
| 1777652090 | 12.22° C | 99% | 989.6 hPa | 0.76 mm | - | - | - |
| 1777651491 | 12.22° C | 99% | 989.5 hPa | 0.51 mm | - | - | - |
| 1777650890 | 12.22° C | 99% | 990.1 hPa | 0.76 mm | - | - | - |
| 1777650291 | 12.22° C | 99% | 990.2 hPa | 0.76 mm | - | - | - |
| 1777649690 | 12.22° C | 99% | 990.5 hPa | 0.51 mm | - | - | - |
* Rain latest hour (hover to see other rain measurements)
** Current wind speed in m/s (hover to see current wind gust speed)